Weather in Izosimovo

Russia / Tambov Oblast     52°58′21″N   40°34′17″E
temp.,
°C
wind,
m/s
gust,
m/s
humid.,
%
clouds,
%
prec.,
mm/h
press.,
hPa
HPBL,
m
1 march, mon
mon100:00−8nne119687 0.1 102021
03:00−9n229781 0.1 102221
06:00−11n229776 0.0 102421
09:00−9n229679 0.1 102687
12:00−6nnw238972 0.0 1026283
15:00−3w238778 0.0 1025386
18:00−5wsw359266 0.0 102491
21:00−6wsw4109660 0.0 1023234
2 march, tue
tue200:00−4wsw6129397 0.0 1021376
03:00−2wsw6129399 0.1 1018466
06:000wsw61392100 0.0 1015567
09:00+1w61393100 0.0 1013658
12:00+1w61299100 0.1 1010557
15:00+1w511100100 0.3 1009546
18:000wnw41094100 0.3 1009563
21:00−1nw41093100 0.3 1009369
3 march, wed
wed300:00−3nw4990100 0.1 1010183
03:00−3nw5129399 0.1 1011435
06:00−4nw7139289 0.1 1011713
09:00−5nnw7138894 0.2 1014794
12:00−4nnw71187100 0.1 1015896
15:00−3nw6118199 0.1 1016898
18:00−3wnw4109166 0.0 1016352
21:00−2wnw5119278 0.1 1017552
4 march, thu
thu400:00−2w5119496 0.1 1016484
03:00−3w5119298 0.2 1015455
06:00−4wsw5119380 0.0 1013370
09:00−1wsw7138588 0.0 1010667
12:00+1wsw8158864 0.0 1007676
15:00+1wsw8168377 0.0 1005871
18:000wsw71776100 0.0 1003773
21:00+1wsw7167995 0.0 1002761
5 march, fri
fri500:00+1wnw6139799 0.3 1002622
03:00−1wnw5109499 0.6 1004411
06:00−4nnw3792100 0.0 1007218
09:00−5n249399 0.0 1009170
12:00−3nne228780 0.0 1011288
15:00−3nne228687 0.0 1012343
18:00−5ne2292100 0.0 101325
21:00−5e229099 0.0 101442